Location: Bayou Vista
(29.6905°N, 91.2709°W)
Time: 05:06:55
(UTC+00:00)

Hubble Space Telescope - Visible Passes

Search period start: 14 July 2024 00:00
Search period end: 24 July 2024 00:00
Orbit: 510 x 513 km, 28.5° (Epoch: 13 July)

Date Brightness Start Highest point End Pass type
(mag) Time Alt. Az. Time Alt. Az. Time Alt. Az.
14 Jul 0.7 02:05:47 10° WSW 02:09:40 57° S 02:12:29 18° E visible
14 Jul 3.0 03:46:12 10° W 03:47:16 18° W 03:47:16 18° W visible
15 Jul 0.7 01:46:23 10° WSW 01:50:18 61° S 01:54:14 10° E visible
15 Jul 2.1 03:26:52 10° W 03:29:04 31° W 03:29:04 31° W visible
16 Jul 0.7 01:27:00 10° WSW 01:30:56 65° S 01:34:52 10° E visible
16 Jul 1.0 03:07:29 10° W 03:10:45 56° WSW 03:10:45 56° WSW visible
17 Jul 0.5 02:48:07 10° W 02:52:04 69° S 02:52:22 65° SSE visible
18 Jul 0.6 02:28:44 10° W 02:32:40 65° S 02:33:55 40° ESE visible
19 Jul 0.7 02:09:20 10° W 02:13:15 62° S 02:15:26 24° ESE visible
20 Jul 0.9 01:49:56 10° W 01:53:51 58° S 01:56:55 15° ESE visible
20 Jul 3.2 03:30:56 10° WSW 03:31:41 14° WSW 03:31:41 14° WSW visible
21 Jul 1.0 01:30:32 10° W 01:34:24 54° SSW 01:38:16 10° ESE visible
21 Jul 2.8 03:11:40 10° WSW 03:13:10 17° SW 03:13:10 17° SW visible
22 Jul 2.6 02:52:25 10° WSW 02:54:40 18° SSW 02:54:40 18° SSW visible
23 Jul 2.7 02:33:13 10° WSW 02:35:40 16° SSW 02:36:12 16° SSW visible
